User: anonymous   Login
Location: Lafig�re
(44.4503°N, 4.0357°E)
Time: 12:58:15
(UTC+00:00)
Language:

SWAS - Orbit

View from above orbital plane
View from above orbital plane
View from above satellite
View from above satellite

Ground track
Ground track

The orbit data is extracted from the following two-line orbital elements,

1 25560U 98071A   20330.75583047 +.00000333 +00000-0 +39694-4 0  9994
2 25560 069.8987 337.7872 0004478 102.8853 257.2803 14.93947978193117
Epoch (UTC): 25 November 2020 18:08:23
Eccentricity: 0.0004478
inclination: 69.8987°
perigee height: 582 km
apogee height: 589 km
right ascension of ascending node: 337.7872°
argument of perigee: 102.8853°
revolutions per day: 14.93947978
mean anomaly at epoch: 257.2803°
orbit number at epoch: 19311

The dashed part of the orbit path shows where the satellite is in the earth's shadow,  

DLR